Weather History for Christmas Island, IS

Change the Weather History Date:

Sunday, December 22, 2013

  Actual Average Record
Temperature  
Mean Temperature 78 °F -  
Max Temperature 82 °F 79 °F 84 °F (2004)
Min Temperature 74 °F 71 °F 66 °F (2001)
Cooling Degree Days 13    
Growing Degree Days 28 (Base 50)    
Moisture  
Dew Point 74 °F    
Average Humidity 88    
Maximum Humidity 100    
Minimum Humidity 71    
Precipitation  
Precipitation 0.67 in - - ()
Sea Level Pressure  
Sea Level Pressure 29.85 in    
Wind  
Wind Speed 6 mph ()    
Max Wind Speed 14 mph    
Max Gust Speed -    
Visibility 6.1 miles    
Events Rain    
Averages and records for this station are not official NWS values.
T = Trace of Precipitation, MM = Missing Value Source: Averaged Metar Reports

Daily Weather History Graph

Daily Weather History Graph

Search for Another Location

Airport:

Trip Planner

Search our weather history database for the weather conditions in past years. The results will help you decide how hot, cold, wet, or windy it might be!

Date:

Astronomy

Dec. 22, 2013 Rise Set
Actual Time 5:33 AM CXT 6:17 PM CXT
Civil Twilight 5:10 AM CXT 6:41 PM CXT
Nautical Twilight 4:43 AM CXT 7:08 PM CXT
Astronomical Twilight 4:15 AM CXT 7:35 PM CXT
Moon 9:51 PM CXT 9:15 AM CXT
Length of Visible Light 13h 30m
Length of Day
12h 44m
Waning Gibbous, 80% of the Moon is Illuminated
Dec 22
Waning Gibbous
Dec 25
Last Quarter
Jan 1
New
Jan 8
First Quarter
Jan 16
Full

Hourly Weather History & Observations

Time (CXT) Temp. Heat Index Dew Point Humidity Pressure Visibility Wind Dir Wind Speed Gust Speed Precip Events Conditions
12:00 AM 75 °F - 74 °F 95% 29.83 in - SSE 4.6 mph - -  
12:00 AM 75.2 °F - 73.4 °F 94% 29.86 in - SSE 4.6 mph - N/A   Mostly Cloudy
12:55 AM 77.0 °F - 75.2 °F 94% 29.86 in - SE 5.8 mph - N/A   Mostly Cloudy
1:00 AM 76 °F - 75 °F 95% 29.82 in - SE 6.9 mph - -  
1:00 AM 77.0 °F - 75.2 °F 94% 29.86 in - SE 6.9 mph - N/A   Mostly Cloudy
1:51 AM 77.0 °F - 73.4 °F 89% 29.86 in - ESE 6.9 mph - N/A   Scattered Clouds
2:00 AM 77.0 °F - 73.4 °F 89% 29.86 in - ESE 5.8 mph - N/A   Mostly Cloudy
2:54 AM 77.0 °F - 73.4 °F 89% 29.83 in - ESE 5.8 mph - N/A   Mostly Cloudy
3:00 AM 76 °F - 74 °F 93% 29.81 in - ESE 6.9 mph - -  
3:00 AM 77.0 °F - 75.2 °F 94% 29.83 in - ESE 6.9 mph - N/A   Mostly Cloudy
4:00 AM 77 °F - 75 °F 92% 29.80 in - ESE 5.8 mph - -  
4:00 AM 77.0 °F - 75.2 °F 94% 29.83 in - ESE 5.8 mph - N/A   Overcast
5:00 AM 77.0 °F - 75.2 °F 94% 29.83 in - ESE 6.9 mph - N/A   Overcast
6:00 AM 77 °F - 75 °F 91% 29.82 in - SE 9.2 mph - -   Overcast
6:00 AM 77.0 °F - 75.2 °F 94% 29.86 in - SE 9.2 mph - N/A   Overcast
7:00 AM 78 °F - 75 °F 88% 29.83 in - SE 9.2 mph - -  
7:00 AM 77.0 °F - 75.2 °F 94% 29.86 in - SE 9.2 mph - N/A   Overcast
8:00 AM 78.8 °F - 75.2 °F 89% 29.89 in 6.2 mi SE 10.4 mph - N/A   Mostly Cloudy
8:53 AM 80.6 °F 86.2 °F 75.2 °F 84% 29.89 in 6.2 mi SE 10.4 mph - N/A   Scattered Clouds
9:00 AM 79 °F - 75 °F 84% 29.85 in - SE 10.4 mph - -  
9:00 AM 78.8 °F - 75.2 °F 89% 29.89 in 6.2 mi SE 10.4 mph - N/A   Scattered Clouds
9:08 AM 78.8 °F - 75.2 °F 89% 29.89 in 6.2 mi SE 10.4 mph - N/A   Mostly Cloudy
10:00 AM 80 °F - 74 °F 77% 29.85 in - ESE 13.8 mph - -  
10:00 AM 80.6 °F 85.4 °F 73.4 °F 79% 29.89 in 6.2 mi ESE 13.8 mph - N/A   Mostly Cloudy
11:00 AM 80.6 °F 86.2 °F 75.2 °F 84% 29.89 in 6.2 mi SE 11.5 mph - N/A   Overcast
12:00 PM 81 °F - 73 °F 71% 29.83 in - SE 12.7 mph - -  
12:00 PM 80.6 °F 85.4 °F 73.4 °F 79% 29.86 in 6.2 mi SE 12.7 mph - N/A   Overcast
1:00 PM 81 °F - 74 °F 72% 29.81 in - SE 9.2 mph - -  
1:00 PM 80.6 °F 85.4 °F 73.4 °F 79% 29.86 in 6.2 mi SE 9.2 mph - N/A   Mostly Cloudy
1:55 PM 80.6 °F 86.2 °F 75.2 °F 84% 29.83 in 6.2 mi SE 8.1 mph - N/A   Overcast
2:00 PM 80.6 °F 85.4 °F 73.4 °F 79% 29.83 in 6.2 mi SE 8.1 mph - N/A   Mostly Cloudy
2:54 PM 80.6 °F 86.2 °F 75.2 °F 84% 29.83 in 6.2 mi SSE 5.8 mph - N/A   Overcast
2:55 PM 80.6 °F 86.2 °F 75.2 °F 84% 29.83 in 6.2 mi SSE 5.8 mph - N/A   Overcast
3:00 PM 78 °F - 73 °F 79% 29.79 in - ESE 6.9 mph - -   Overcast
3:00 PM 77.0 °F - 73.4 °F 89% 29.83 in 6.2 mi ESE 6.9 mph - N/A   Overcast
4:00 PM 80 °F - 74 °F 79% 29.79 in - SSE 6.9 mph - -  
4:00 PM 80.6 °F 86.2 °F 75.2 °F 84% 29.83 in 6.2 mi SSE 6.9 mph - N/A   Mostly Cloudy
4:10 PM 80.6 °F 86.2 °F 75.2 °F 84% 29.83 in 6.2 mi SE 5.8 mph - N/A   Mostly Cloudy
4:25 PM 78.8 °F - 75.2 °F 89% 29.83 in 3.7 mi NE 4.6 mph - N/A Rain Rain
4:45 PM 77.0 °F - 73.4 °F 89% 29.83 in 6.2 mi NW 5.8 mph - N/A Rain Light Rain Showers
5:00 PM 77.0 °F - 73.4 °F 89% 29.83 in 6.2 mi West 4.6 mph - N/A   Overcast
5:23 PM 77.0 °F - 75.2 °F 94% 29.83 in - SW 3.5 mph - N/A Rain Heavy Rain Showers
6:00 PM 76 °F - 74 °F 92% 29.81 in - WSW 1.2 mph - -  
6:00 PM 75.2 °F - 73.4 °F 94% 29.83 in - WSW 1.2 mph - N/A   Mostly Cloudy
7:00 PM 76 °F - 75 °F 94% 29.83 in - Calm Calm - -  
7:00 PM 75.2 °F - 75.2 °F 100% 29.86 in - Calm Calm - N/A   Overcast
8:00 PM 75.2 °F - 71.6 °F 89% 29.89 in - ESE 6.9 mph - N/A   Overcast
9:00 PM 75 °F - 73 °F 93% 29.86 in - South 2.3 mph - -  
9:00 PM 75.2 °F - 73.4 °F 94% 29.89 in - South 2.3 mph - N/A   Scattered Clouds
10:00 PM 75 °F - 74 °F 95% 29.86 in - Calm Calm - -  
10:00 PM 75.2 °F - 73.4 °F 94% 29.89 in - Calm Calm - N/A   Mostly Cloudy
11:00 PM 75.2 °F - 73.4 °F 94% 29.89 in - Calm Calm - N/A   Scattered Clouds
11:54 PM 75.2 °F - 73.4 °F 94% 29.89 in - SE 1.2 mph - N/A   Mostly Cloudy